Location: ???????
(60.4260°N, 46.9069°E)
Time: 18:23:41
(UTC+00:00)

CBERS 1 LM4 rocket - Pass Details

Date: 30 March 2020
Orbit: 701 x 842 km, 98.8° (Epoch: 05 June)

Event Time Altitude Azimuth Distance (km) Brightness Sun altitude
Rises 01:27:15 0° 18° (NNE) 3,109 8.3 -7.4°
Reaches altitude 10° 01:29:30 10° 17° (NNE) 2,191 7.4 -7.1°
Maximum altitude 01:34:16 75° 293° (WNW) 746 4.4 -6.6°
Drops below altitude 10° 01:39:08 10° 208° (SSW) 2,228 6.5 -6.0°
Sets 01:41:26 0° 207° (SSW) 3,165 7.3 -5.7°
